{"data":{"norad_id":59198,"intl_designator":"2024-045W","name":"STARLINK-31590","alt_names":[],"object_type":"PAYLOAD","status":"ACTIVE","operator":null,"country":"US","launch_date":"2024-03-10","launch_site_code":"AFETR","launch_vehicle":null,"mission":null,"orbit_class":"UNKNOWN","rcs_meters":null,"size_class":null,"mass_kg":null,"dimensions":null,"purposes":["comms"],"wikipedia_slug":null,"has_3d_model":false,"image_url":null,"decayed_at":null,"tle_current":{"epoch":"2026-05-25T00:52:03.798048Z","epoch_age_seconds":65310,"freshness":"FRESH","line1":"1 59198U 24045W   26145.03615507 -.00001640  00000+0 -50105-4 0  9999","line2":"2 59198  43.0030  21.7120 0000312 216.7422 143.3409 15.27582295124835","mean_motion":15.27582295,"eccentricity":3.12e-5,"inclination_deg":43.003,"raan_deg":21.712,"arg_perigee_deg":216.7422,"mean_anomaly_deg":143.3409,"bstar":-5.0105e-5,"rev_number":12483,"period_min":94.266607089735,"perigee_km":482.82815520085,"apogee_km":483.25629278442,"semimajor_km":6861.1792239926,"source":"CELESTRAK","updated_at":"2026-05-25T13:38:18.863043Z"}}}